Location: Heidgraben
(53.7081°N, 9.6576°E)
Time: 04:41:01
(UTC+00:00)

ATLAS 2AS CENTAUR R/B - Pass Details

Date: 05 July 2020
Orbit: 930 x 1282 km, 63.7° (Epoch: 19 July)

Event Time Altitude Azimuth Distance (km) Brightness Sun altitude
Rises 22:30:49 0° 313° (NW) 4,195 6.8 -12.7°
Reaches altitude 10° 22:33:46 10° 309° (NW) 3,189 6.0 -12.8°
Maximum altitude 22:41:04 50° 237° (WSW) 1,441 3.2 -13.0°
Enters shadow 22:46:18 17° 169° (S) 2,451 3.9 -13.1°
